Flag for Australia Weather past 2 weeks in Perth, Western Australia, Australia

Now
91 °F

Sunny.


Feels Like: 88 °F
Forecast: 67 / 83 °F
Wind: 14 mph from East

Location: Belmont Perth Airport

Current Time: Dec 19, 2014 at 11:23:21 AM

Latest Report: Dec 19, 2014 at 10:30 AM


Visibility: 10 mi

Pressure: 29.86 "Hg

Humidity: 21%

Dew point: 46 °F

Location of PerthLocation

Historic Weather in Perth — Graph

°F

Perth temperature yesterday

Maximum temperature yesterday: 88 °F (at 2:00 PM)
Minimum temperature yesterday: 61 °F (at 12:30 AM)
Average temperature yesterday: 73 °F

Past Weeks' High & Low Weather Summary

 TemperatureHumidityPressure
High91 °F (Dec 11, 2:00 PM)100% (Dec 6, 4:30 AM)30.18 "Hg (Dec 6, 4:30 AM)
Low52 °F (Dec 14, 3:00 AM)13% (Dec 18, 2:30 PM)29.71 "Hg (Dec 7, 4:00 PM)
Average69 °F54%29.93 "Hg
* Reported Dec 4 10:00 AM — Dec 19 10:00 AM, Perth, Weather by CustomWeather, © 2014

Note: Actual official high and low records may vary slightly from our data, if they occured in-between our weather recording intervals... More about our weather records

Advertising

Perth weather history for previous 24 hours

 ConditionsComfort  
Time TempWeatherWind HumidityBarometerVisibility
10:00 AM
Dec 19
90 °FSunny.12 mph24%29.89 "Hg10 mi
9:30 AM86 °FSunny.18 mph25%29.89 "Hg10 mi
9:00 AM84 °FSunny.20 mph29%29.89 "Hg10 mi
8:30 AM81 °FSunny.16 mph32%29.92 "Hg10 mi
8:00 AM77 °FSunny.20 mph36%29.92 "Hg10 mi
7:30 AM73 °FSunny.18 mph41%29.92 "Hg10 mi
7:00 AM72 °FSunny.21 mph44%29.92 "Hg10 mi
6:30 AM70 °FSunny.18 mph46%29.92 "Hg10 mi
6:00 AM68 °FSunny.15 mph49%29.92 "Hg10 mi
5:00 AM68 °FSunny.12 mph49%29.92 "Hg10 mi
4:00 AM70 °FClear.15 mph46%29.89 "Hg10 mi
3:00 AM70 °FClear.15 mph46%29.89 "Hg10 mi
2:30 AM68 °FClear.8 mph49%29.89 "Hg10 mi
2:00 AM61 °FClear.5 mph72%29.89 "Hg10 mi
1:30 AM61 °FClear.5 mph77%29.89 "Hg10 mi
1:00 AM63 °FClear.7 mph73%29.92 "Hg10 mi
12:30 AM61 °FClear.8 mph77%29.92 "Hg10 mi
12:00 AM63 °FClear.7 mph73%29.92 "Hg10 mi
11:00 PM
Dec 18
66 °FClear.12 mph68%29.95 "Hg10 mi
10:30 PM68 °FClear.16 mph60%29.95 "Hg10 mi
10:00 PM68 °FClear.16 mph60%29.95 "Hg10 mi
9:30 PM70 °FClear.15 mph57%29.95 "Hg10 mi
9:00 PM70 °FClear.16 mph57%29.95 "Hg10 mi
8:30 PM72 °FClear.17 mph53%29.95 "Hg10 mi
8:00 PM73 °FClear.21 mph47%29.95 "Hg10 mi
7:30 PM73 °FClear.15 mph50%29.95 "Hg10 mi
7:00 PM75 °FClear.15 mph44%29.92 "Hg10 mi
6:00 PM79 °FSunny.16 mph34%29.92 "Hg10 mi
5:30 PM81 °FSunny.20 mph34%29.92 "Hg10 mi
5:00 PM82 °FSunny.18 mph32%29.92 "Hg10 mi
4:30 PM84 °FSunny.17 mph33%29.92 "Hg10 mi
4:00 PM82 °FSunny.18 mph32%29.92 "Hg10 mi
3:30 PM84 °FSunny.18 mph29%29.92 "Hg10 mi
3:00 PM86 °FSunny.15 mph25%29.92 "Hg10 mi
2:30 PM88 °FSunny.15 mph13%29.92 "Hg10 mi
2:00 PM88 °FSunny.8 mph15%29.95 "Hg10 mi
1:30 PM86 °FSunny.9 mph14%29.95 "Hg10 mi
1:00 PM86 °FSunny.9 mph17%29.95 "Hg10 mi
12:30 PM84 °FSunny.8 mph19%29.98 "Hg10 mi
12:00 PM82 °FSunny.10 mph25%29.98 "Hg10 mi
11:00 AM79 °FSunny.14 mph30%30.01 "Hg10 mi
Weather by CustomWeather, © 2014

See weather overviewHow to use our weather pages